{"data":{"norad_id":66729,"epoch":"2026-05-25T03:04:06.392064Z","epoch_age_seconds":63872,"freshness":"FRESH","line1":"1 66729U 25276BR  26145.12785176  .00005554  00000+0  26633-3 0  9998","line2":"2 66729  97.4195 218.9507 0006551  93.2719 266.9265 15.19284849 26912","mean_motion":15.19284849,"eccentricity":0.0006551,"inclination_deg":97.4195,"raan_deg":218.9507,"arg_perigee_deg":93.2719,"mean_anomaly_deg":266.9265,"bstar":0.00026633,"rev_number":2691,"period_min":94.781436209794,"perigee_km":503.4895990159,"apogee_km":512.51181664069,"semimajor_km":6886.1377078283,"source":"CELESTRAK","updated_at":"2026-05-25T13:38:13.371665Z"}}